When you browse on this site, cookies collect data to enhance your experience and personalize the content and advertising you see.
Visit our Privacy Policy to learn more. By continuing to use the site, you agree to this use of cookies and data.

Hourly Weather Lincoln

Today, 9 August, Sunday

Time Temperature Precipitation Wind Pressure Humidity
00:00 +16°C° 0 mm 5 mps 762 mmHg 89%
01:00 +16°C° 0.4 mm 5 mps 762 mmHg 90%
02:00 +16°C° 0.4 mm 5 mps 761 mmHg 91%
03:00 +17°C° 0.4 mm 4 mps 761 mmHg 92%
04:00 +17°C° 0 mm 4 mps 761 mmHg 92%
05:00 +17°C° 0 mm 4 mps 761 mmHg 92%
06:00 +17°C° 0 mm 3 mps 761 mmHg 89%
07:00 +17°C° 0 mm 4 mps 761 mmHg 88%
08:00 +18°C° 0 mm 4 mps 761 mmHg 87%
09:00 +18°C° 0 mm 4 mps 761 mmHg 87%
10:00 +19°C° 0 mm 4 mps 760 mmHg 84%
11:00 +20°C° 0 mm 4 mps 760 mmHg 81%
12:00 +20°C° 0 mm 4 mps 760 mmHg 80%
13:00 +21°C° 0 mm 4 mps 760 mmHg 78%
14:00 +22°C° 0 mm 4 mps 760 mmHg 76%
15:00 +22°C° 0 mm 5 mps 759 mmHg 74%
16:00 +22°C° 0 mm 4 mps 759 mmHg 76%
17:00 +21°C° 0 mm 4 mps 759 mmHg 77%
18:00 +21°C° 0 mm 4 mps 759 mmHg 79%
19:00 +20°C° 0 mm 4 mps 759 mmHg 84%
20:00 +18°C° 0 mm 3 mps 759 mmHg 89%
21:00 +17°C° 0 mm 3 mps 759 mmHg 94%
22:00 +17°C° 0 mm 3 mps 759 mmHg 94%
23:00 +16°C° 0 mm 3 mps 759 mmHg 95%

Tomorrow, 10 August, Monday

Time Temperature Precipitation Wind Pressure Humidity
00:00 +16°C° 0 mm 3 mps 759 mmHg 96%
01:00 +16°C° 0 mm 3 mps 758 mmHg 96%
02:00 +16°C° 0 mm 3 mps 758 mmHg 96%
03:00 +16°C° 0 mm 3 mps 758 mmHg 96%
04:00 +16°C° 0 mm 3 mps 758 mmHg 94%
05:00 +15°C° 0 mm 4 mps 757 mmHg 92%
06:00 +15°C° 0 mm 4 mps 757 mmHg 90%
07:00 +18°C° 0 mm 4 mps 757 mmHg 84%
08:00 +20°C° 0 mm 4 mps 757 mmHg 78%
09:00 +22°C° 0 mm 4 mps 758 mmHg 72%
10:00 +23°C° 0 mm 5 mps 757 mmHg 69%
11:00 +25°C° 0 mm 5 mps 757 mmHg 65%
12:00 +26°C° 0 mm 5 mps 757 mmHg 62%
13:00 +26°C° 0 mm 5 mps 757 mmHg 62%
14:00 +27°C° 0 mm 5 mps 757 mmHg 62%
15:00 +27°C° 0 mm 5 mps 756 mmHg 62%
16:00 +26°C° 0 mm 5 mps 756 mmHg 66%
17:00 +25°C° 0 mm 5 mps 756 mmHg 70%
18:00 +23°C° 0 mm 5 mps 756 mmHg 74%
19:00 +22°C° 0 mm 4 mps 756 mmHg 80%
20:00 +20°C° 0 mm 4 mps 756 mmHg 85%
21:00 +19°C° 0 mm 3 mps 756 mmHg 91%
22:00 +19°C° 0 mm 3 mps 757 mmHg 92%
23:00 +19°C° 0 mm 3 mps 757 mmHg 93%

Day after tomorrow, 11 August, Tuesday

Time Temperature Precipitation Wind Pressure Humidity
00:00 +18°C° 0 mm 3 mps 757 mmHg 94%
01:00 +18°C° 0 mm 3 mps 757 mmHg 95%
02:00 +18°C° 0 mm 3 mps 756 mmHg 95%
03:00 +18°C° 0 mm 2 mps 756 mmHg 96%
04:00 +19°C° 0.1 mm 2 mps 756 mmHg 95%
05:00 +19°C° 0.1 mm 2 mps 756 mmHg 93%
06:00 +20°C° 0.1 mm 2 mps 756 mmHg 92%
07:00 +23°C° 0.2 mm 2 mps 756 mmHg 84%
08:00 +25°C° 0.2 mm 2 mps 756 mmHg 77%
09:00 +27°C° 0.2 mm 3 mps 756 mmHg 69%
10:00 +28°C° 0 mm 3 mps 756 mmHg 64%
11:00 +30°C° 0 mm 3 mps 756 mmHg 58%
12:00 +31°C° 0 mm 3 mps 756 mmHg 53%
13:00 +33°C° 0 mm 4 mps 756 mmHg 51%
14:00 +33°C° 0 mm 4 mps 756 mmHg 50%
15:00 +34°C° 0 mm 4 mps 756 mmHg 48%
16:00 +32°C° 1.1 mm 4 mps 756 mmHg 54%
17:00 +30°C° 1.1 mm 4 mps 755 mmHg 60%
18:00 +28°C° 1.1 mm 5 mps 755 mmHg 66%
19:00 +27°C° 1.3 mm 4 mps 755 mmHg 72%
20:00 +25°C° 1.3 mm 4 mps 755 mmHg 77%
21:00 +23°C° 1.3 mm 4 mps 756 mmHg 83%
22:00 +22°C° 1.3 mm 3 mps 756 mmHg 85%
23:00 +23°C° 1.3 mm 2 mps 756 mmHg 86%

12 August, Wednesday

Time Temperature Precipitation Wind Pressure Humidity
00:00 +22°C° 1.3 mm 1 mps 756 mmHg 88%
01:00 +22°C° 0.4 mm 1 mps 755 mmHg 88%
02:00 +22°C° 0.4 mm 1 mps 755 mmHg 88%
03:00 +22°C° 0.4 mm 1 mps 755 mmHg 88%
04:00 +22°C° 0.1 mm 1 mps 755 mmHg 87%
05:00 +22°C° 0.1 mm 1 mps 754 mmHg 86%
06:00 +23°C° 0.1 mm 1 mps 754 mmHg 84%
07:00 +24°C° 0 mm 1 mps 754 mmHg 79%
08:00 +25°C° 0 mm 1 mps 755 mmHg 74%
09:00 +27°C° 0 mm 1 mps 755 mmHg 68%
10:00 +28°C° 0 mm 1 mps 755 mmHg 64%
11:00 +29°C° 0 mm 1 mps 755 mmHg 59%
12:00 +31°C° 0 mm 1 mps 755 mmHg 55%
13:00 +31°C° 0 mm 1 mps 754 mmHg 53%
14:00 +32°C° 0 mm 1 mps 754 mmHg 50%
15:00 +34°C° 0 mm 2 mps 754 mmHg 48%
16:00 +32°C° 0 mm 2 mps 754 mmHg 51%
17:00 +31°C° 0 mm 2 mps 753 mmHg 55%
18:00 +30°C° 0 mm 3 mps 753 mmHg 58%
19:00 +28°C° 3.1 mm 3 mps 753 mmHg 68%
20:00 +26°C° 3.1 mm 3 mps 753 mmHg 77%
21:00 +24°C° 3.1 mm 3 mps 753 mmHg 86%
22:00 +22°C° 1.4 mm 3 mps 753 mmHg 87%
23:00 +22°C° 1.4 mm 4 mps 753 mmHg 89%

13 August, Thursday

Time Temperature Precipitation Wind Pressure Humidity
00:00 +22°C° 1.4 mm 4 mps 753 mmHg 90%
01:00 +21°C° 0.8 mm 4 mps 752 mmHg 90%
02:00 +21°C° 0.8 mm 3 mps 751 mmHg 90%
03:00 +21°C° 0.8 mm 3 mps 751 mmHg 90%
04:00 +21°C° 0.9 mm 3 mps 751 mmHg 90%
05:00 +21°C° 0.9 mm 2 mps 751 mmHg 90%
06:00 +20°C° 0.9 mm 2 mps 750 mmHg 90%
07:00 +21°C° 0.8 mm 2 mps 750 mmHg 88%
08:00 +23°C° 0.8 mm 2 mps 750 mmHg 86%
09:00 +23°C° 0.8 mm 1 mps 750 mmHg 84%
10:00 +24°C° 0 mm 2 mps 750 mmHg 80%
11:00 +26°C° 0 mm 2 mps 750 mmHg 76%
12:00 +27°C° 0 mm 2 mps 750 mmHg 71%
13:00 +27°C° 0.2 mm 2 mps 750 mmHg 70%
14:00 +27°C° 0.2 mm 2 mps 750 mmHg 69%
15:00 +28°C° 0.2 mm 2 mps 750 mmHg 68%
16:00 +27°C° 1.6 mm 2 mps 750 mmHg 70%
17:00 +27°C° 1.6 mm 2 mps 749 mmHg 73%
18:00 +26°C° 1.6 mm 2 mps 749 mmHg 76%
19:00 +25°C° 1.2 mm 3 mps 750 mmHg 80%
20:00 +24°C° 1.2 mm 3 mps 750 mmHg 84%
21:00 +22°C° 1.2 mm 3 mps 750 mmHg 88%
22:00 +21°C° 1.6 mm 3 mps 750 mmHg 90%
23:00 +20°C° 1.6 mm 2 mps 750 mmHg 92%

14 August, Friday

Time Temperature Precipitation Wind Pressure Humidity
00:00 +20°C° 1.6 mm 2 mps 750 mmHg 94%
01:00 +19°C° 0.8 mm 2 mps 749 mmHg 95%
02:00 +20°C° 0.8 mm 1 mps 749 mmHg 95%
03:00 +20°C° 0.8 mm 1 mps 749 mmHg 96%
04:00 +20°C° 0.1 mm 1 mps 749 mmHg 95%
05:00 +20°C° 0.1 mm 2 mps 749 mmHg 93%
06:00 +20°C° 0.1 mm 2 mps 749 mmHg 92%
07:00 +21°C° 0.1 mm 2 mps 749 mmHg 88%
08:00 +21°C° 0.1 mm 2 mps 750 mmHg 84%
09:00 +23°C° 0.1 mm 2 mps 750 mmHg 79%
10:00 +22°C° 0.5 mm 3 mps 750 mmHg 78%
11:00 +23°C° 0.5 mm 4 mps 750 mmHg 77%
12:00 +23°C° 0.5 mm 4 mps 750 mmHg 76%
13:00 +23°C° 0.2 mm 5 mps 750 mmHg 72%
14:00 +23°C° 0.2 mm 5 mps 750 mmHg 68%
15:00 +25°C° 0.2 mm 5 mps 751 mmHg 64%
16:00 +23°C° 0 mm 5 mps 751 mmHg 64%
17:00 +23°C° 0 mm 4 mps 751 mmHg 65%
18:00 +23°C° 0 mm 4 mps 752 mmHg 66%
19:00 +21°C° 0 mm 4 mps 752 mmHg 69%
20:00 +20°C° 0 mm 3 mps 753 mmHg 73%
21:00 +19°C° 0 mm 3 mps 753 mmHg 76%
22:00 +18°C° 0 mm 3 mps 753 mmHg 77%
23:00 +18°C° 0 mm 3 mps 754 mmHg 78%
Show more